• In Austria
  • List of Countries
  • For 7 days
  • Water Temperature
  • Satellite Maps
  • Weather Map
  • News
  • Weather Widgets
  • user-avatar
    Login

    Hourly Weather Rawson

    Today, 16 November, Friday

    Time Temperature Precipitation Wind Pressure Humidity
    00:00 +12°C° 0 mm 7 mps 759 mmHg 36%
    01:00 +12°C° 0 mm 7 mps 759 mmHg 35%
    02:00 +12°C° 0 mm 7 mps 759 mmHg 35%
    03:00 +13°C° 0 mm 6 mps 759 mmHg 36%
    04:00 +12°C° 0 mm 5 mps 758 mmHg 36%
    05:00 +12°C° 0 mm 4 mps 758 mmHg 37%
    06:00 +13°C° 0 mm 3 mps 758 mmHg 33%
    07:00 +16°C° 0 mm 3 mps 758 mmHg 29%
    08:00 +17°C° 0 mm 2 mps 758 mmHg 25%
    09:00 +19°C° 0 mm 3 mps 757 mmHg 22%
    10:00 +21°C° 0 mm 4 mps 756 mmHg 18%
    11:00 +23°C° 0 mm 4 mps 756 mmHg 15%
    12:00 +25°C° 0 mm 5 mps 755 mmHg 14%
    13:00 +26°C° 0 mm 6 mps 754 mmHg 14%
    14:00 +27°C° 0 mm 6 mps 753 mmHg 13%
    15:00 +26°C° 0.2 mm 6 mps 753 mmHg 18%
    16:00 +24°C° 0.2 mm 6 mps 752 mmHg 22%
    17:00 +23°C° 0.2 mm 5 mps 752 mmHg 27%
    18:00 +22°C° 0.1 mm 5 mps 752 mmHg 30%
    19:00 +21°C° 0.1 mm 4 mps 752 mmHg 33%
    20:00 +21°C° 0.1 mm 4 mps 752 mmHg 36%
    21:00 +20°C° 0 mm 4 mps 752 mmHg 36%
    22:00 +20°C° 0 mm 4 mps 752 mmHg 36%
    23:00 +19°C° 0 mm 4 mps 752 mmHg 35%

    Tomorrow, 17 November, Saturday

    Time Temperature Precipitation Wind Pressure Humidity
    00:00 +19°C° 0 mm 5 mps 752 mmHg 34%
    01:00 +17°C° 0 mm 6 mps 752 mmHg 33%
    02:00 +17°C° 0 mm 7 mps 752 mmHg 32%
    03:00 +16°C° 0 mm 8 mps 753 mmHg 33%
    04:00 +16°C° 0 mm 8 mps 753 mmHg 34%
    05:00 +16°C° 0 mm 9 mps 754 mmHg 34%
    06:00 +16°C° 0 mm 9 mps 754 mmHg 34%
    07:00 +16°C° 0 mm 9 mps 755 mmHg 34%
    08:00 +16°C° 0 mm 9 mps 755 mmHg 33%
    09:00 +17°C° 0 mm 9 mps 755 mmHg 31%
    10:00 +18°C° 0 mm 9 mps 755 mmHg 29%
    11:00 +19°C° 0 mm 9 mps 756 mmHg 27%
    12:00 +19°C° 0 mm 9 mps 755 mmHg 26%
    13:00 +21°C° 0 mm 8 mps 755 mmHg 26%
    14:00 +21°C° 0 mm 7 mps 755 mmHg 26%
    15:00 +21°C° 0 mm 6 mps 755 mmHg 27%
    16:00 +21°C° 0 mm 5 mps 755 mmHg 28%
    17:00 +20°C° 0 mm 4 mps 755 mmHg 28%
    18:00 +20°C° 0 mm 3 mps 756 mmHg 30%
    19:00 +19°C° 0 mm 3 mps 756 mmHg 33%
    20:00 +19°C° 0 mm 2 mps 756 mmHg 35%
    21:00 +18°C° 0 mm 3 mps 756 mmHg 35%
    22:00 +18°C° 0 mm 4 mps 757 mmHg 35%
    23:00 +17°C° 0 mm 5 mps 757 mmHg 36%

    Day after tomorrow, 18 November, Sunday

    Time Temperature Precipitation Wind Pressure Humidity
    00:00 +16°C° 0 mm 6 mps 757 mmHg 36%
    01:00 +16°C° 0 mm 7 mps 757 mmHg 37%
    02:00 +15°C° 0 mm 8 mps 757 mmHg 38%
    03:00 +15°C° 0 mm 8 mps 757 mmHg 39%
    04:00 +13°C° 0 mm 8 mps 757 mmHg 40%
    05:00 +14°C° 0 mm 7 mps 757 mmHg 42%
    06:00 +15°C° 0 mm 7 mps 757 mmHg 39%
    07:00 +16°C° 0 mm 8 mps 757 mmHg 36%
    08:00 +17°C° 0 mm 8 mps 757 mmHg 33%
    09:00 +20°C° 0 mm 8 mps 757 mmHg 31%
    10:00 +21°C° 0 mm 8 mps 757 mmHg 29%
    11:00 +22°C° 0 mm 8 mps 757 mmHg 27%
    12:00 +23°C° 0 mm 8 mps 757 mmHg 25%
    13:00 +24°C° 0 mm 7 mps 756 mmHg 24%
    14:00 +24°C° 0 mm 7 mps 756 mmHg 23%
    15:00 +24°C° 0 mm 6 mps 756 mmHg 23%
    16:00 +24°C° 0 mm 6 mps 755 mmHg 23%
    17:00 +24°C° 0 mm 6 mps 755 mmHg 23%
    18:00 +25°C° 0 mm 5 mps 755 mmHg 25%
    19:00 +23°C° 0 mm 4 mps 755 mmHg 27%
    20:00 +22°C° 0 mm 4 mps 755 mmHg 29%
    21:00 +22°C° 0 mm 4 mps 755 mmHg 30%
    22:00 +22°C° 0 mm 4 mps 755 mmHg 30%
    23:00 +22°C° 0 mm 4 mps 755 mmHg 30%

    19 November, Monday

    Time Temperature Precipitation Wind Pressure Humidity
    00:00 +22°C° 0 mm 4 mps 755 mmHg 31%
    01:00 +21°C° 0 mm 4 mps 755 mmHg 31%
    02:00 +21°C° 0 mm 4 mps 754 mmHg 32%
    03:00 +21°C° 0 mm 3 mps 754 mmHg 32%
    04:00 +21°C° 0 mm 3 mps 754 mmHg 33%
    05:00 +20°C° 0 mm 3 mps 753 mmHg 33%
    06:00 +21°C° 0 mm 4 mps 753 mmHg 32%
    07:00 +22°C° 0 mm 5 mps 753 mmHg 30%
    08:00 +23°C° 0 mm 6 mps 753 mmHg 29%
    09:00 +26°C° 0 mm 7 mps 752 mmHg 27%
    10:00 +27°C° 0 mm 7 mps 752 mmHg 25%
    11:00 +28°C° 0 mm 8 mps 752 mmHg 24%
    12:00 +28°C° 0 mm 8 mps 751 mmHg 23%
    13:00 +29°C° 0 mm 8 mps 751 mmHg 22%
    14:00 +31°C° 0 mm 8 mps 750 mmHg 21%
    15:00 +31°C° 0 mm 8 mps 750 mmHg 21%
    16:00 +31°C° 0 mm 9 mps 749 mmHg 20%
    17:00 +31°C° 0 mm 9 mps 749 mmHg 20%
    18:00 +29°C° 0 mm 9 mps 750 mmHg 21%
    19:00 +28°C° 0 mm 8 mps 750 mmHg 23%
    20:00 +27°C° 0 mm 8 mps 751 mmHg 24%
    21:00 +26°C° 0 mm 8 mps 751 mmHg 26%
    22:00 +26°C° 0 mm 9 mps 752 mmHg 27%
    23:00 +24°C° 0 mm 9 mps 752 mmHg 28%

    20 November, Tuesday

    Time Temperature Precipitation Wind Pressure Humidity
    00:00 +23°C° 0 mm 9 mps 753 mmHg 30%
    01:00 +23°C° 0 mm 8 mps 753 mmHg 31%
    02:00 +22°C° 0 mm 8 mps 753 mmHg 32%
    03:00 +21°C° 0 mm 8 mps 754 mmHg 35%
    04:00 +20°C° 0 mm 7 mps 754 mmHg 38%
    05:00 +18°C° 0 mm 7 mps 754 mmHg 40%
    06:00 +20°C° 0 mm 6 mps 755 mmHg 39%
    07:00 +20°C° 0 mm 6 mps 755 mmHg 38%
    08:00 +21°C° 0 mm 6 mps 756 mmHg 37%
    09:00 +22°C° 0 mm 5 mps 756 mmHg 35%
    10:00 +22°C° 0 mm 4 mps 756 mmHg 32%
    11:00 +24°C° 0 mm 3 mps 756 mmHg 30%
    12:00 +26°C° 0 mm 4 mps 755 mmHg 28%
    13:00 +27°C° 0 mm 5 mps 754 mmHg 25%
    14:00 +28°C° 0 mm 6 mps 754 mmHg 22%
    15:00 +28°C° 0 mm 7 mps 753 mmHg 23%
    16:00 +28°C° 0 mm 7 mps 752 mmHg 23%
    17:00 +28°C° 0 mm 8 mps 751 mmHg 24%
    18:00 +26°C° 0 mm 9 mps 751 mmHg 29%
    19:00 +23°C° 0 mm 10 mps 751 mmHg 35%
    20:00 +21°C° 0 mm 11 mps 751 mmHg 41%
    21:00 +19°C° 0 mm 10 mps 751 mmHg 45%
    22:00 +18°C° 0 mm 9 mps 750 mmHg 49%
    23:00 +18°C° 0 mm 9 mps 750 mmHg 53%

    21 November, Wednesday

    Time Temperature Precipitation Wind Pressure Humidity
    00:00 +20°C° 0 mm 7 mps 749 mmHg 49%
    01:00 +20°C° 0 mm 6 mps 748 mmHg 45%
    02:00 +21°C° 0 mm 5 mps 748 mmHg 40%
    03:00 +21°C° 0 mm 5 mps 747 mmHg 37%
    04:00 +21°C° 0 mm 6 mps 747 mmHg 34%
    05:00 +21°C° 0 mm 7 mps 747 mmHg 31%
    06:00 +23°C° 0 mm 8 mps 746 mmHg 30%
    07:00 +26°C° 0 mm 10 mps 746 mmHg 28%
    08:00 +28°C° 0 mm 11 mps 746 mmHg 27%
    09:00 +29°C° 0 mm 13 mps 746 mmHg 26%
    10:00 +29°C° 0 mm 14 mps 746 mmHg 26%
    11:00 +31°C° 0 mm 16 mps 746 mmHg 25%
    12:00 +28°C° 0 mm 17 mps 747 mmHg 21%
    13:00 +25°C° 0 mm 18 mps 748 mmHg 18%
    14:00 +23°C° 0 mm 19 mps 749 mmHg 14%
    15:00 +22°C° 0 mm 19 mps 750 mmHg 15%
    16:00 +20°C° 0 mm 19 mps 751 mmHg 16%
    17:00 +20°C° 0 mm 18 mps 752 mmHg 16%
    18:00 +19°C° 0 mm 17 mps 753 mmHg 18%
    19:00 +18°C° 0 mm 15 mps 755 mmHg 19%
    20:00 +17°C° 0 mm 14 mps 757 mmHg 21%
    21:00 +15°C° 0 mm 13 mps 758 mmHg 21%
    22:00 +15°C° 0 mm 12 mps 759 mmHg 22%
    23:00 +14°C° 0 mm 10 mps 761 mmHg 23%
    Show more